Miscellaneous Local Product
Issued by NWS North Platte, NE

Home | Current Version | Previous Version | Text Only | Print | Product List | Glossary On
Versions: 1 2 3 4 5 6 7 8 9 10 11 12 13 14 15 16 17 18 19 20 21 22 23 24 25 26 27 28 29 30 31 32 33 34 35 36 37 38 39 40 41 42 43 44 45 46 47 48 49 50
000
AXUS43 KLBF 171210
MISLBF


WESTERN AND NORTH CENTRAL NEBRASKA HOURLY WEATHER ROUNDUP
NATIONAL WEATHER SERVICE NORTH PLATTE NE
600 AM CST SUN DEC 17 2017

NOTE: "FAIR" INDICATES FEW OR NO CLOUDS BELOW 12,000 FEET WITH NO
SIGNIFICANT WEATHER AND/OR OBSTRUCTIONS TO VISIBILITY.

NOTE: STATIONS NOT REPORTING VARIABLES SUCH AS SKY/WEATHER OR
PRESSURE ARE PROVIDED BY RAWS AND APRS NETWORKS AND ARE NOT UNDER
NATIONAL WEATHER SERVICE QUALITY CONTROL.

...OBSERVATIONS IN AND NEAR THE EASTERN PANHANDLE OF NEBRASKA...

CITY           SKY/WX    TMP DP  RH WIND       PRES   REMARKS
PINE RIDGE     CLOUDY    30  29  96 W3        30.02F
GORDON         CLOUDY    31  29  92 NW5       30.00S WCI  26
CHADRON        CLOUDY    30  28  92 CALM      30.03S
ALLIANCE       CLOUDY    29  29 100 N3        30.00R FOG
SIDNEY         CLOUDY    30  29  96 NE7       29.99R FOG     WCI  23
CRESCENT LAKE    N/A     30  29  95 CALM        N/A
$$

...OBSERVATIONS IN NORTHERN NEBRASKA AND FAR SOUTHERN SOUTH DAKOTA...

CITY           SKY/WX    TMP DP  RH WIND       PRES   REMARKS
WINNER         CLOUDY    32  30  92 W3        30.05S
VALENTINE      CLOUDY    33  30  88 NW3       30.03S
THEDFORD       CLOUDY    34  33  97 N6        30.01S FOG     WCI  29
AINSWORTH      CLOUDY    32  32 100 N3        30.03R
O`NEILL        CLOUDY    32  32 100 N5        30.04S WCI  27
ORD            CLOUDY    34  29  82 N10       30.01R WCI  26
BROKEN BOW     CLOUDY    33  30  88 N8        30.00R WCI  26
VALENTINE NWR    N/A     50  30  46 N5          N/A
HALSEY           N/A     33  30  90 N3          N/A
BUTTE            N/A     31  30  95 CALM        N/A
EWING            N/A     31  29  92 NE3         N/A
$$

...OBSERVATIONS IN SOUTHWEST NEBRASKA AND FAR NORTHEAST COLORADO...

CITY           SKY/WX    TMP DP  RH WIND       PRES   REMARKS
WRAY           CLOUDY   N/A N/A N/A N8        30.00R FOG
HOLYOKE        MIX PCPN  34  32  93 N8        29.99R WCI  27
IMPERIAL       CLOUDY    34  34 100 N7        29.99R FOG     WCI  28
OGALLALA       DRIZZLE   34  33  95 N8        30.00S WCI  28
NORTH PLATTE   CLOUDY    35  33  92 N5        30.00R WCI  31
MCCOOK         CLOUDY    36  31  82 N10       29.99R WCI  28
LEXINGTON      CLEAR     26  24  91 N8        29.99R WCI  18
STAPLETON        N/A     31  30  95 CALM        N/A
GOTHENBURG       N/A     35  30  82 N7          N/A  WCI  29
CALLAWAY         N/A     33  30  90 NE7         N/A  WCI  27
$$

...OBSERVATIONS IN CENTRAL LINCOLN COUNTY AREA...

CITY           SKY/WX    TMP DP  RH WIND       PRES   REMARKS
N.P. AIRPORT   CLOUDY    35  33  92 N5        30.00R WCI  31
N.P. DOWNTOWN    N/A     33  31  94 CALM        N/A
N.P. SOUTHEAST   N/A     33  31  94 N3          N/A
N.P. HILLCREST   N/A     33  31  93 NE6         N/A  WCI  27
$$

...SOME OBSERVATIONS FROM AROUND THE REGION...

CITY           SKY/WX    TMP DP  RH WIND       PRES   REMARKS
DENVER         FOG       28  27  96 S3        29.96R VSB 1/2
GRAND JUNCTION CLOUDY    14   3  61 CALM      30.00R
LARAMIE        FOG       13  13 100 W5        29.90R VSB 1/4 WCI   5
CHEYENNE       CLOUDY    26  26 100 E3        29.94R
CASPER         CLOUDY    23  20  88 SW6       29.96S WCI  16
BISMARCK       CLOUDY    21  16  81 SW3       30.03S
RAPID CITY     CLOUDY    29  26  89 W3        30.01F
PIERRE         CLOUDY    30  30 100 NW7       30.04S WCI  23
SIOUX FALLS    CLOUDY    24  23  96 CALM      30.05R FOG
OMAHA          CLOUDY    30  24  78 N13       29.97F WCI  20
GRAND ISLAND   CLOUDY    30  29  96 N10       29.98F WCI  21
SCOTTSBLUFF    CLOUDY    31  29  92 CALM      30.01R
KANSAS CITY    LGT RAIN  43  40  89 SW8       30.00R
HILL CITY      CLOUDY    32  30  92 N12       29.95R WCI  23
WICHITA        CLOUDY    44  42  93 S14       29.96R
DODGE CITY     CLOUDY    31  27  85 NW9       29.91R WCI  23
OKLAHOMA CITY  CLOUDY    42  42 100 S12       30.00R FOG
DALLAS         CLOUDY    46  43  89 SE7       30.02F FOG
AMARILLO       CLOUDY    31  29  92 NW10      29.94R WCI  22
$$




USA.gov is the U.S. government's official web portal to all federal, state and local government web resources and services.